,,PA_Meas_PMT16A,,PR_Meas_QMR101_102,,RH_Meas_QMH101,,SR_Meas_QMS101,,TA_Meas_QMH101,,GenWind,,GenWind,
time,status,PA,status,PR,status,RH,status,SR,status,TA,status,DirAvg,status,SpdAvg,
2012-12-06, 00:00:04,VALID,917.533,VALID,0,VALID,97.0232,VALID,0,VALID,20.2309,VALID,113,VALID,0,
2012-12-06, 00:01:04,VALID,917.516,VALID,0,VALID,97.0156,VALID,0,VALID,20.2309,VALID,113,VALID,0,
2012-12-06, 00:02:04,VALID,917.502,VALID,0,VALID,96.9927,VALID,0,VALID,20.2504,VALID,113,VALID,0,
2012-12-06, 00:03:04,VALID,917.482,VALID,0,VALID,97.0156,VALID,0,VALID,20.2714,VALID,122,VALID,0,
2012-12-06, 00:04:04,VALID,917.459,VALID,0,VALID,97.0156,VALID,0,VALID,20.2909,VALID,122,VALID,0,
2012-12-06, 00:05:04,VALID,917.416,VALID,0,VALID,97.0003,VALID,0,VALID,20.2894,VALID,122,VALID,0,
2012-12-06, 00:06:04,VALID,917.407,VALID,0,VALID,97.0003,VALID,0,VALID,20.3089,VALID,122,VALID,0,
2012-12-06, 00:07:04,VALID,917.392,VALID,0,VALID,97.0232,VALID,0,VALID,20.3284,VALID,122,VALID,0,
2012-12-06, 00:08:04,VALID,917.373,VALID,0,VALID,97.0003,VALID,0,VALID,20.3495,VALID,122,VALID,0,
2012-12-06, 00:09:04,VALID,917.349,VALID,0,VALID,96.9927,VALID,0,VALID,20.3089,VALID,122,VALID,0,
2012-12-06, 00:10:04,VALID,917.338,VALID,0,VALID,96.9698,VALID,0,VALID,20.33,VALID,122,VALID,0,
2012-12-06, 00:11:04,VALID,917.314,VALID,0,VALID,96.9622,VALID,0,VALID,20.33,VALID,122,VALID,0,
2012-12-06, 00:12:04,VALID,917.269,VALID,0,VALID,96.9394,VALID,0,VALID,20.3089,VALID,122,VALID,0,
2012-12-06, 00:13:04,VALID,917.296,VALID,0,VALID,96.947,VALID,0,VALID,20.3089,VALID,122,VALID,0,
2012-12-06, 00:14:04,VALID,917.266,VALID,0,VALID,96.9317,VALID,0,VALID,20.3284,VALID,122,VALID,0,
2012-12-06, 00:15:04,VALID,917.269,VALID,0,VALID,96.9394,VALID,0,VALID,20.33,VALID,122,VALID,0,
2012-12-06, 00:16:04,VALID,917.198,VALID,0,VALID,96.9241,VALID,0,VALID,20.3284,VALID,148,VALID,0,
2012-12-06, 00:17:04,VALID,917.207,VALID,0,VALID,96.9165,VALID,0,VALID,20.3479,VALID,148,VALID,0,
2012-12-06, 00:18:04,VALID,917.192,VALID,0,VALID,96.886,VALID,0,VALID,20.3479,VALID,148,VALID,0,
2012-12-06, 00:19:04,VALID,917.169,VALID,0,VALID,96.9089,VALID,0,VALID,20.3479,VALID,148,VALID,0,
2012-12-06, 00:20:04,VALID,917.137,VALID,0,VALID,96.8936,VALID,0,VALID,20.3479,VALID,148,VALID,0,
2012-12-06, 00:21:04,VALID,917.125,VALID,0,VALID,96.8784,VALID,0,VALID,20.3284,VALID,148,VALID,0,
2012-12-06, 00:22:04,VALID,917.121,VALID,0,VALID,96.8784,VALID,0,VALID,20.369,VALID,148,VALID,0,
2012-12-06, 00:23:04,VALID,917.134,VALID,0,VALID,96.8555,VALID,0,VALID,20.3479,VALID,148,VALID,0,
2012-12-06, 00:24:04,VALID,917.129,VALID,0,VALID,96.8707,VALID,0,VALID,20.3479,VALID,148,VALID,0,
2012-12-06, 00:25:04,VALID,917.107,VALID,0,VALID,96.8479,VALID,0,VALID,20.3479,VALID,148,VALID,0,
2012-12-06, 00:26:04,VALID,917.113,VALID,0,VALID,96.8555,VALID,0,VALID,20.3674,VALID,148,VALID,0,
2012-12-06, 00:27:04,VALID,917.105,VALID,0,VALID,96.8403,VALID,0,VALID,20.369,VALID,148,VALID,0,
2012-12-06, 00:28:04,VALID,917.076,VALID,0,VALID,96.7945,VALID,0,VALID,20.3479,VALID,148,VALID,0,
2012-12-06, 00:29:04,VALID,917.106,VALID,0,VALID,96.7869,VALID,0,VALID,20.3284,VALID,148,VALID,0,
2012-12-06, 00:30:04,VALID,917.086,VALID,0,VALID,96.764,VALID,0,VALID,20.3495,VALID,148,VALID,0,
2012-12-06, 00:31:04,VALID,917.102,VALID,0,VALID,96.7411,VALID,0,VALID,20.3089,VALID,148,VALID,0,
2012-12-06, 00:32:04,VALID,917.069,VALID,0,VALID,96.703,VALID,0,VALID,20.3089,VALID,148,VALID,0,
2012-12-06, 00:33:04,VALID,917.079,VALID,0,VALID,96.6725,VALID,0,VALID,20.3089,VALID,148,VALID,0,
2012-12-06, 00:34:04,VALID,917.029,VALID,0,VALID,96.6649,VALID,0,VALID,20.33,VALID,148,VALID,0,
2012-12-06, 00:35:04,VALID,917.009,VALID,0,VALID,96.6649,VALID,0,VALID,20.2894,VALID,148,VALID,0,
2012-12-06, 00:36:04,VALID,916.983,VALID,0,VALID,96.642,VALID,0,VALID,20.2894,VALID,148,VALID,0,
2012-12-06, 00:37:04,VALID,916.999,VALID,0,VALID,96.5963,VALID,0,VALID,20.3105,VALID,148,VALID,0,
2012-12-06, 00:38:04,VALID,916.966,VALID,0,VALID,96.5887,VALID,0,VALID,20.2894,VALID,148,VALID,0,
2012-12-06, 00:39:04,VALID,917.012,VALID,0,VALID,96.5734,VALID,0,VALID,20.2504,VALID,148,VALID,0,
2012-12-06, 00:40:04,VALID,917.022,VALID,0,VALID,96.5353,VALID,0,VALID,20.2309,VALID,129,VALID,0,
2012-12-06, 00:41:04,VALID,917.013,VALID,0,VALID,96.5353,VALID,0,VALID,20.2114,VALID,123,VALID,0,
2012-12-06, 00:42:04,VALID,917.022,VALID,0,VALID,96.5353,VALID,0,VALID,20.1724,VALID,117,VALID,0,
2012-12-06, 00:43:04,VALID,917.022,VALID,0,VALID,96.5201,VALID,0,VALID,20.1139,VALID,119,VALID,0,
2012-12-06, 00:44:04,VALID,917.056,VALID,0,VALID,96.5277,VALID,0,VALID,20.0749,VALID,119,VALID,0,
2012-12-06, 00:45:04,VALID,917.035,VALID,0,VALID,96.5582,VALID,0,VALID,20.0343,VALID,125,VALID,0,
2012-12-06, 00:46:04,VALID,916.989,VALID,0,VALID,96.5887,VALID,0,VALID,20.0358,VALID,103,VALID,0,
2012-12-06, 00:47:04,VALID,916.994,VALID,0,VALID,96.6115,VALID,0.107441,VALID,19.9953,VALID,112,VALID,0,
2012-12-06, 00:48:04,VALID,916.993,VALID,0,VALID,96.6649,VALID,0,VALID,19.9773,VALID,110,VALID,0,
2012-12-06, 00:49:04,VALID,916.981,VALID,0,VALID,96.642,VALID,0,VALID,19.9368,VALID,111,VALID,0,
2012-12-06, 00:50:04,VALID,916.981,VALID,0,VALID,96.6954,VALID,0,VALID,19.9383,VALID,118,VALID,0,
2012-12-06, 00:51:04,VALID,916.968,VALID,0,VALID,96.7411,VALID,0,VALID,19.9188,VALID,114,VALID,0,
2012-12-06, 00:52:04,VALID,916.944,VALID,0,VALID,96.764,VALID,0,VALID,19.8783,VALID,119,VALID,0,
2012-12-06, 00:53:04,VALID,916.959,VALID,0,VALID,96.7716,VALID,0,VALID,19.8783,VALID,124,VALID,0,
2012-12-06, 00:54:04,VALID,916.927,VALID,0,VALID,96.7945,VALID,0,VALID,19.8783,VALID,119,VALID,0,
2012-12-06, 00:55:04,VALID,916.934,VALID,0,VALID,96.8479,VALID,0,VALID,19.8588,VALID,108,VALID,0,
2012-12-06, 00:56:04,VALID,916.925,VALID,0,VALID,96.8403,VALID,0,VALID,19.8993,VALID,122,VALID,0,
2012-12-06, 00:57:04,VALID,916.928,VALID,0,VALID,96.8707,VALID,0,VALID,19.8993,VALID,123,VALID,0,
2012-12-06, 00:58:04,VALID,916.949,VALID,0,VALID,96.9012,VALID,0.107441,VALID,19.8978,VALID,127,VALID,0,
2012-12-06, 00:59:04,VALID,916.938,VALID,0,VALID,96.9241,VALID,0,VALID,19.9188,VALID,134,VALID,0,
2012-12-06, 01:00:04,VALID,916.952,VALID,0,VALID,96.9546,VALID,0,VALID,19.9188,VALID,137,VALID,0,
2012-12-06, 01:01:04,VALID,916.938,VALID,0,VALID,96.9546,VALID,0,VALID,19.9398,VALID,134,VALID,0,
2012-12-06, 01:02:04,VALID,916.896,VALID,0,VALID,96.9622,VALID,0,VALID,19.9203,VALID,133,VALID,0,
2012-12-06, 01:03:04,VALID,916.917,VALID,0,VALID,96.9851,VALID,0,VALID,19.9188,VALID,133,VALID,0,
2012-12-06, 01:04:04,VALID,916.903,VALID,0,VALID,96.9851,VALID,0,VALID,19.9188,VALID,133,VALID,0,
2012-12-06, 01:05:04,VALID,916.901,VALID,0,VALID,97.0003,VALID,0,VALID,19.9383,VALID,133,VALID,0,
2012-12-06, 01:06:04,VALID,916.904,VALID,0,VALID,97.0003,VALID,0,VALID,19.9398,VALID,133,VALID,0,
2012-12-06, 01:07:04,VALID,916.866,VALID,0,VALID,97.0156,VALID,0,VALID,19.9593,VALID,133,VALID,0,
2012-12-06, 01:08:04,VALID,916.884,VALID,0,VALID,97.008,VALID,0,VALID,19.9398,VALID,133,VALID,0,
2012-12-06, 01:09:04,VALID,916.845,VALID,0,VALID,97.008,VALID,0,VALID,19.9203,VALID,133,VALID,0,
2012-12-06, 01:10:04,VALID,916.824,VALID,0,VALID,97.0385,VALID,0,VALID,19.9203,VALID,133,VALID,0,
2012-12-06, 01:11:04,VALID,916.812,VALID,0,VALID,97.0232,VALID,0,VALID,19.9008,VALID,133,VALID,0,
2012-12-06, 01:12:04,VALID,916.803,VALID,0,VALID,97.0385,VALID,0,VALID,19.8813,VALID,133,VALID,0,
2012-12-06, 01:13:04,VALID,916.799,VALID,0,VALID,97.0461,VALID,0,VALID,19.8813,VALID,133,VALID,0,
2012-12-06, 01:14:05,VALID,916.799,VALID,0,VALID,97.0613,VALID,0,VALID,19.9203,VALID,133,VALID,0,
2012-12-06, 01:15:05,VALID,916.798,VALID,0,VALID,97.0385,VALID,0,VALID,19.9203,VALID,133,VALID,0,
2012-12-06, 01:16:05,VALID,916.778,VALID,0,VALID,97.0766,VALID,0,VALID,19.9188,VALID,133,VALID,0,
2012-12-06, 01:17:05,VALID,916.744,VALID,0,VALID,97.0613,VALID,0,VALID,19.9188,VALID,133,VALID,0,
2012-12-06, 01:18:05,VALID,916.733,VALID,0,VALID,97.069,VALID,0,VALID,19.9398,VALID,133,VALID,0,
2012-12-06, 01:19:05,VALID,916.774,VALID,0,VALID,97.0537,VALID,0,VALID,19.9188,VALID,133,VALID,0,
2012-12-06, 01:20:05,VALID,916.772,VALID,0,VALID,97.0613,VALID,0,VALID,19.9398,VALID,133,VALID,0,
2012-12-06, 01:21:05,VALID,916.738,VALID,0,VALID,97.0537,VALID,0,VALID,19.9398,VALID,133,VALID,0,
2012-12-06, 01:22:05,VALID,916.749,VALID,0,VALID,97.0156,VALID,0,VALID,19.9593,VALID,133,VALID,0,
2012-12-06, 01:23:05,VALID,916.753,VALID,0,VALID,97.0461,VALID,0,VALID,19.9383,VALID,133,VALID,0,
2012-12-06, 01:24:05,VALID,916.747,VALID,0,VALID,97.0156,VALID,0,VALID,19.9383,VALID,133,VALID,0,
2012-12-06, 01:25:05,VALID,916.715,VALID,0,VALID,97.0003,VALID,0,VALID,19.9788,VALID,125,VALID,0,
2012-12-06, 01:26:05,VALID,916.721,VALID,0,VALID,96.9546,VALID,0,VALID,19.9788,VALID,125,VALID,0,
2012-12-06, 01:27:05,VALID,916.724,VALID,0,VALID,96.9241,VALID,0,VALID,19.9788,VALID,125,VALID,0,
2012-12-06, 01:28:05,VALID,916.689,VALID,0,VALID,96.8707,VALID,0,VALID,19.9788,VALID,125,VALID,0,
2012-12-06, 01:29:05,VALID,916.68,VALID,0,VALID,96.825,VALID,0,VALID,19.9593,VALID,125,VALID,0,
2012-12-06, 01:30:05,VALID,916.67,VALID,0,VALID,96.764,VALID,0,VALID,19.9188,VALID,125,VALID,0,
2012-12-06, 01:31:05,VALID,916.681,VALID,0,VALID,96.7335,VALID,0,VALID,19.8978,VALID,125,VALID,0,
2012-12-06, 01:32:05,VALID,916.682,VALID,0,VALID,96.703,VALID,0,VALID,19.8798,VALID,125,VALID,0,
2012-12-06, 01:33:05,VALID,916.671,VALID,0,VALID,96.6725,VALID,0,VALID,19.8798,VALID,125,VALID,0,
2012-12-06, 01:34:05,VALID,916.652,VALID,0,VALID,96.6497,VALID,0,VALID,19.8603,VALID,125,VALID,0,
2012-12-06, 01:35:05,VALID,916.669,VALID,0,VALID,96.6344,VALID,0,VALID,19.8213,VALID,125,VALID,0,
2012-12-06, 01:36:05,VALID,916.607,VALID,0,VALID,96.6115,VALID,0,VALID,19.8213,VALID,125,VALID,0,
2012-12-06, 01:37:05,VALID,916.628,VALID,0,VALID,96.6268,VALID,0,VALID,19.8003,VALID,125,VALID,0,
2012-12-06, 01:38:05,VALID,916.608,VALID,0,VALID,96.5658,VALID,0,VALID,19.7823,VALID,125,VALID,0,
2012-12-06, 01:39:05,VALID,916.585,VALID,0,VALID,96.5277,VALID,0,VALID,19.7433,VALID,125,VALID,0,
2012-12-06, 01:40:05,VALID,916.57,VALID,0,VALID,96.5506,VALID,0,VALID,19.7223,VALID,125,VALID,0,
2012-12-06, 01:41:05,VALID,916.585,VALID,0,VALID,96.6497,VALID,0,VALID,19.7433,VALID,125,VALID,0,
2012-12-06, 01:42:05,VALID,916.562,VALID,0,VALID,96.6802,VALID,0,VALID,19.7823,VALID,125,VALID,0,
2012-12-06, 01:43:05,VALID,916.568,VALID,0,VALID,96.6802,VALID,0,VALID,19.8018,VALID,125,VALID,0,
2012-12-06, 01:44:05,VALID,916.546,VALID,0,VALID,96.7259,VALID,0,VALID,19.7808,VALID,125,VALID,0,
2012-12-06, 01:45:05,VALID,916.579,VALID,0,VALID,96.7335,VALID,0,VALID,19.7628,VALID,125,VALID,0,
2012-12-06, 01:46:05,VALID,916.567,VALID,0,VALID,96.7411,VALID,0,VALID,19.7628,VALID,125,VALID,0,
2012-12-06, 01:47:05,VALID,916.565,VALID,0,VALID,96.7183,VALID,0,VALID,19.7628,VALID,125,VALID,0,
2012-12-06, 01:48:05,VALID,916.537,VALID,0,VALID,96.703,VALID,0,VALID,19.7238,VALID,125,VALID,0,
2012-12-06, 01:49:05,VALID,916.559,VALID,0,VALID,96.6878,VALID,0,VALID,19.7433,VALID,125,VALID,0,
2012-12-06, 01:50:05,VALID,916.54,VALID,0,VALID,96.7411,VALID,0,VALID,19.8018,VALID,125,VALID,0,
2012-12-06, 01:51:05,VALID,916.574,VALID,0,VALID,96.7716,VALID,0,VALID,19.8018,VALID,125,VALID,0,
2012-12-06, 01:52:05,VALID,916.561,VALID,0,VALID,96.7793,VALID,0,VALID,19.8018,VALID,125,VALID,0,
2012-12-06, 01:53:05,VALID,916.593,VALID,0,VALID,96.7716,VALID,0.107441,VALID,19.8018,VALID,125,VALID,0,
2012-12-06, 01:54:05,VALID,916.59,VALID,0,VALID,96.7793,VALID,0,VALID,19.8213,VALID,125,VALID,0,
2012-12-06, 01:55:05,VALID,916.56,VALID,0,VALID,96.764,VALID,0,VALID,19.8018,VALID,125,VALID,0,
2012-12-06, 01:56:05,VALID,916.581,VALID,0,VALID,96.7793,VALID,0,VALID,19.8033,VALID,125,VALID,0,
2012-12-06, 01:57:05,VALID,916.571,VALID,0,VALID,96.7945,VALID,0,VALID,19.8018,VALID,125,VALID,0,
2012-12-06, 01:58:05,VALID,916.578,VALID,0,VALID,96.764,VALID,0,VALID,19.8213,VALID,125,VALID,0,
2012-12-06, 01:59:05,VALID,916.559,VALID,0,VALID,96.825,VALID,0,VALID,19.8213,VALID,125,VALID,0,
2012-12-06, 02:00:05,VALID,916.564,VALID,0,VALID,96.7869,VALID,0.107441,VALID,19.8213,VALID,125,VALID,0,
2012-12-06, 02:01:05,VALID,916.553,VALID,0,VALID,96.7259,VALID,0.107441,VALID,19.7418,VALID,125,VALID,0,
2012-12-06, 02:02:05,VALID,916.528,VALID,0,VALID,96.7183,VALID,0.107441,VALID,19.7028,VALID,125,VALID,0,
2012-12-06, 02:03:05,VALID,916.495,VALID,0,VALID,96.6878,VALID,0,VALID,19.7028,VALID,125,VALID,0,
2012-12-06, 02:04:05,VALID,916.486,VALID,0,VALID,96.6725,VALID,0,VALID,19.7043,VALID,125,VALID,0,
2012-12-06, 02:05:05,VALID,916.464,VALID,0,VALID,96.6802,VALID,0.107441,VALID,19.6653,VALID,125,VALID,0,
2012-12-06, 02:06:05,VALID,916.463,VALID,0,VALID,96.6725,VALID,0.107441,VALID,19.6653,VALID,125,VALID,0,
2012-12-06, 02:07:05,VALID,916.448,VALID,0,VALID,96.6954,VALID,0.107441,VALID,19.6053,VALID,125,VALID,0,
2012-12-06, 02:08:05,VALID,916.446,VALID,0,VALID,96.703,VALID,0.107441,VALID,19.6263,VALID,132,VALID,0,
2012-12-06, 02:09:05,VALID,916.438,VALID,0,VALID,96.7411,VALID,0,VALID,19.6068,VALID,132,VALID,0,
2012-12-06, 02:10:05,VALID,916.393,VALID,0,VALID,96.7564,VALID,0.107441,VALID,19.6263,VALID,132,VALID,0,
2012-12-06, 02:11:05,VALID,916.408,VALID,0,VALID,96.7793,VALID,0.107441,VALID,19.6263,VALID,132,VALID,0,
2012-12-06, 02:12:05,VALID,916.355,VALID,0,VALID,96.8326,VALID,0,VALID,19.6638,VALID,132,VALID,0,
2012-12-06, 02:13:05,VALID,916.357,VALID,0,VALID,96.8479,VALID,0.107441,VALID,19.7238,VALID,132,VALID,0,
2012-12-06, 02:14:05,VALID,916.374,VALID,0,VALID,96.8784,VALID,0,VALID,19.7238,VALID,132,VALID,0,
2012-12-06, 02:15:05,VALID,916.328,VALID,0,VALID,96.9012,VALID,0.107441,VALID,19.7043,VALID,132,VALID,0,
2012-12-06, 02:16:05,VALID,916.317,VALID,0,VALID,96.8936,VALID,0.107441,VALID,19.6848,VALID,132,VALID,0,
2012-12-06, 02:17:05,VALID,916.301,VALID,0,VALID,96.8707,VALID,0,VALID,19.6443,VALID,132,VALID,0,
2012-12-06, 02:18:05,VALID,916.289,VALID,0,VALID,96.8326,VALID,0,VALID,19.6263,VALID,132,VALID,0,
2012-12-06, 02:19:05,VALID,916.241,VALID,0,VALID,96.825,VALID,0.107441,VALID,19.6653,VALID,132,VALID,0,
2012-12-06, 02:20:05,VALID,916.212,VALID,0,VALID,96.825,VALID,0.107441,VALID,19.6248,VALID,129,VALID,0,
2012-12-06, 02:21:05,VALID,916.185,VALID,0,VALID,96.8403,VALID,0.107441,VALID,19.6263,VALID,126,VALID,0,
2012-12-06, 02:22:05,VALID,916.192,VALID,0,VALID,96.8631,VALID,0,VALID,19.6458,VALID,126,VALID,0,
2012-12-06, 02:23:05,VALID,916.164,VALID,0,VALID,96.8784,VALID,0,VALID,19.6458,VALID,126,VALID,0,
2012-12-06, 02:24:05,VALID,916.141,VALID,0,VALID,96.9165,VALID,0.107441,VALID,19.6053,VALID,126,VALID,0,
2012-12-06, 02:25:05,VALID,916.145,VALID,0,VALID,96.8936,VALID,0.107441,VALID,19.6458,VALID,126,VALID,0,
2012-12-06, 02:26:05,VALID,916.177,VALID,0,VALID,96.9089,VALID,0,VALID,19.6248,VALID,128,VALID,0,
2012-12-06, 02:27:05,VALID,916.177,VALID,0,VALID,96.947,VALID,0.107441,VALID,19.6653,VALID,131,VALID,0,
2012-12-06, 02:28:05,VALID,916.181,VALID,0,VALID,96.947,VALID,0.107441,VALID,19.6848,VALID,141,VALID,0,
2012-12-06, 02:29:05,VALID,916.163,VALID,0,VALID,96.9622,VALID,0,VALID,19.6653,VALID,141,VALID,0,
2012-12-06, 02:30:05,VALID,916.15,VALID,0,VALID,96.9698,VALID,0.107441,VALID,19.6458,VALID,141,VALID,0,
2012-12-06, 02:31:05,VALID,916.126,VALID,0,VALID,96.9851,VALID,0,VALID,19.6653,VALID,141,VALID,0,
2012-12-06, 02:32:05,VALID,916.178,VALID,0,VALID,96.9775,VALID,0,VALID,19.6653,VALID,141,VALID,0,
2012-12-06, 02:33:05,VALID,916.128,VALID,0,VALID,97.008,VALID,0,VALID,19.6653,VALID,141,VALID,0,
2012-12-06, 02:34:05,VALID,916.147,VALID,0,VALID,97.008,VALID,0,VALID,19.7043,VALID,141,VALID,0,
2012-12-06, 02:35:05,VALID,916.166,VALID,0,VALID,96.9927,VALID,0,VALID,19.6848,VALID,141,VALID,0,
2012-12-06, 02:36:05,VALID,916.125,VALID,0,VALID,96.9851,VALID,0,VALID,19.6443,VALID,141,VALID,0,
2012-12-06, 02:37:05,VALID,916.152,VALID,0,VALID,96.9927,VALID,0,VALID,19.6653,VALID,141,VALID,0,
2012-12-06, 02:38:05,VALID,916.154,VALID,0,VALID,96.9851,VALID,0,VALID,19.6653,VALID,141,VALID,0,
2012-12-06, 02:39:05,VALID,916.147,VALID,0,VALID,96.9851,VALID,0,VALID,19.6653,VALID,141,VALID,0,
2012-12-06, 02:40:05,VALID,916.156,VALID,0,VALID,96.9851,VALID,0,VALID,19.6653,VALID,141,VALID,0,
2012-12-06, 02:41:05,VALID,916.135,VALID,0,VALID,96.9927,VALID,0.107441,VALID,19.6653,VALID,141,VALID,0,
2012-12-06, 02:42:05,VALID,916.146,VALID,0,VALID,96.9927,VALID,0,VALID,19.6653,VALID,141,VALID,0,
2012-12-06, 02:43:05,VALID,916.172,VALID,0,VALID,97.0003,VALID,0,VALID,19.6638,VALID,141,VALID,0,
2012-12-06, 02:44:05,VALID,916.154,VALID,0,VALID,97.0003,VALID,0,VALID,19.7043,VALID,141,VALID,0,
2012-12-06, 02:45:05,VALID,916.145,VALID,0,VALID,97.008,VALID,0,VALID,19.6848,VALID,141,VALID,0,
2012-12-06, 02:46:05,VALID,916.127,VALID,0,VALID,96.9927,VALID,0,VALID,19.6653,VALID,141,VALID,0,
2012-12-06, 02:47:05,VALID,916.17,VALID,0,VALID,96.9775,VALID,0,VALID,19.6653,VALID,141,VALID,0,
2012-12-06, 02:48:05,VALID,916.133,VALID,0,VALID,96.9851,VALID,0,VALID,19.6848,VALID,141,VALID,0,
2012-12-06, 02:49:05,VALID,916.146,VALID,0,VALID,96.9851,VALID,0.107441,VALID,19.6263,VALID,141,VALID,0,
2012-12-06, 02:50:05,VALID,916.13,VALID,0,VALID,96.9622,VALID,0,VALID,19.5873,VALID,141,VALID,0,
2012-12-06, 02:51:05,VALID,916.084,VALID,0,VALID,96.9165,VALID,0,VALID,19.5678,VALID,141,VALID,0,
2012-12-06, 02:52:05,VALID,916.102,VALID,0,VALID,96.947,VALID,0,VALID,19.5483,VALID,141,VALID,0,
2012-12-06, 02:53:05,VALID,916.087,VALID,0,VALID,96.947,VALID,0,VALID,19.5288,VALID,141,VALID,0,
2012-12-06, 02:54:05,VALID,916.135,VALID,0,VALID,96.9394,VALID,0.107441,VALID,19.5078,VALID,141,VALID,0,
2012-12-06, 02:55:05,VALID,916.112,VALID,0,VALID,96.9394,VALID,0,VALID,19.5093,VALID,141,VALID,0,
2012-12-06, 02:56:05,VALID,916.128,VALID,0,VALID,96.947,VALID,0,VALID,19.4898,VALID,141,VALID,0,
2012-12-06, 02:57:05,VALID,916.147,VALID,0,VALID,96.9622,VALID,0,VALID,19.4493,VALID,141,VALID,0,
2012-12-06, 02:58:05,VALID,916.14,VALID,0,VALID,96.9775,VALID,0,VALID,19.4703,VALID,141,VALID,0,
2012-12-06, 02:59:05,VALID,916.107,VALID,0,VALID,96.9622,VALID,0,VALID,19.4508,VALID,141,VALID,0,
2012-12-06, 03:00:05,VALID,916.136,VALID,0,VALID,96.9317,VALID,0,VALID,19.4132,VALID,141,VALID,0,
2012-12-06, 03:01:05,VALID,916.148,VALID,0,VALID,96.9622,VALID,0,VALID,19.3937,VALID,141,VALID,0,
2012-12-06, 03:02:05,VALID,916.159,VALID,0,VALID,96.9851,VALID,0,VALID,19.3937,VALID,141,VALID,0,
2012-12-06, 03:03:05,VALID,916.177,VALID,0,VALID,96.9927,VALID,0,VALID,19.3533,VALID,141,VALID,0,
2012-12-06, 03:04:05,VALID,916.168,VALID,0,VALID,96.9851,VALID,0,VALID,19.3352,VALID,135,VALID,0,
2012-12-06, 03:05:05,VALID,916.157,VALID,0,VALID,97.0156,VALID,0,VALID,19.3352,VALID,131,VALID,0,
2012-12-06, 03:06:05,VALID,916.179,VALID,0,VALID,97.0232,VALID,0,VALID,19.3547,VALID,124,VALID,0,
2012-12-06, 03:07:05,VALID,916.157,VALID,0,VALID,97.0308,VALID,0,VALID,19.3937,VALID,124,VALID,0,
2012-12-06, 03:08:05,VALID,916.161,VALID,0,VALID,97.0385,VALID,0,VALID,19.3547,VALID,124,VALID,0,
2012-12-06, 03:09:05,VALID,916.189,VALID,0,VALID,97.0308,VALID,0,VALID,19.3547,VALID,124,VALID,0,
2012-12-06, 03:10:05,VALID,916.172,VALID,0,VALID,97.0385,VALID,0,VALID,19.3533,VALID,124,VALID,0,
2012-12-06, 03:11:05,VALID,916.181,VALID,0,VALID,97.0461,VALID,0,VALID,19.3742,VALID,126,VALID,0,
2012-12-06, 03:12:05,VALID,916.128,VALID,0,VALID,97.0385,VALID,0,VALID,19.3338,VALID,126,VALID,0,
2012-12-06, 03:13:05,VALID,916.168,VALID,0,VALID,97.0308,VALID,0,VALID,19.3338,VALID,126,VALID,0,
2012-12-06, 03:14:05,VALID,916.163,VALID,0,VALID,97.0308,VALID,0,VALID,19.2962,VALID,127,VALID,0,
2012-12-06, 03:15:05,VALID,916.152,VALID,0,VALID,97.0232,VALID,0,VALID,19.3143,VALID,136,VALID,0,
2012-12-06, 03:16:05,VALID,916.13,VALID,0,VALID,97.0385,VALID,0.107441,VALID,19.3338,VALID,145,VALID,0,
2012-12-06, 03:17:05,VALID,916.132,VALID,0,VALID,97.0537,VALID,0,VALID,19.3338,VALID,137,VALID,0,
2012-12-06, 03:18:05,VALID,916.121,VALID,0,VALID,97.0537,VALID,0,VALID,19.3143,VALID,124,VALID,0,
2012-12-06, 03:19:05,VALID,916.099,VALID,0,VALID,97.0842,VALID,0,VALID,19.3143,VALID,121,VALID,0,
2012-12-06, 03:20:05,VALID,916.101,VALID,0,VALID,97.1071,VALID,0,VALID,19.3143,VALID,132,VALID,0,
2012-12-06, 03:21:05,VALID,916.096,VALID,0,VALID,97.0842,VALID,0,VALID,19.3338,VALID,125,VALID,0,
2012-12-06, 03:22:05,VALID,916.119,VALID,0,VALID,97.1071,VALID,0.107441,VALID,19.3338,VALID,131,VALID,0,
2012-12-06, 03:23:05,VALID,916.123,VALID,0,VALID,97.1223,VALID,0.107441,VALID,19.3533,VALID,127,VALID,0,
2012-12-06, 03:24:05,VALID,916.131,VALID,0,VALID,97.1299,VALID,0,VALID,19.3143,VALID,127,VALID,0,
2012-12-06, 03:25:05,VALID,916.07,VALID,0,VALID,97.1528,VALID,0.107441,VALID,19.3128,VALID,122,VALID,0,
2012-12-06, 03:26:05,VALID,916.093,VALID,0,VALID,97.1299,VALID,0,VALID,19.3338,VALID,133,VALID,0,
2012-12-06, 03:27:05,VALID,916.106,VALID,0,VALID,97.1452,VALID,0.107441,VALID,19.2933,VALID,133,VALID,0,
2012-12-06, 03:28:05,VALID,916.1,VALID,0,VALID,97.1757,VALID,0,VALID,19.3143,VALID,138,VALID,0,
2012-12-06, 03:29:05,VALID,916.112,VALID,0,VALID,97.1681,VALID,0,VALID,19.3352,VALID,138,VALID,0,
2012-12-06, 03:30:05,VALID,916.098,VALID,0,VALID,97.1604,VALID,0,VALID,19.3143,VALID,142,VALID,0,
2012-12-06, 03:31:05,VALID,916.088,VALID,0,VALID,97.1833,VALID,0,VALID,19.3338,VALID,147,VALID,0,
2012-12-06, 03:32:05,VALID,916.085,VALID,0,VALID,97.1833,VALID,0,VALID,19.3338,VALID,147,VALID,0,
2012-12-06, 03:33:05,VALID,916.075,VALID,0,VALID,97.1909,VALID,0,VALID,19.3338,VALID,159,VALID,0,
2012-12-06, 03:34:05,VALID,916.055,VALID,0,VALID,97.2062,VALID,0,VALID,19.3547,VALID,170,VALID,0,
2012-12-06, 03:35:05,VALID,916.079,VALID,0,VALID,97.2062,VALID,0,VALID,19.3338,VALID,169,VALID,0,
2012-12-06, 03:36:05,VALID,916.055,VALID,0,VALID,97.2138,VALID,0,VALID,19.3338,VALID,153,VALID,0,
2012-12-06, 03:37:05,VALID,916.049,VALID,0,VALID,97.1833,VALID,0,VALID,19.3338,VALID,154,VALID,0,
2012-12-06, 03:38:05,VALID,916.01,VALID,0,VALID,97.229,VALID,0,VALID,19.3547,VALID,154,VALID,0,
2012-12-06, 03:39:05,VALID,916.044,VALID,0,VALID,97.2138,VALID,0,VALID,19.2948,VALID,154,VALID,0,
2012-12-06, 03:40:05,VALID,916.008,VALID,0,VALID,97.2062,VALID,0,VALID,19.2363,VALID,138,VALID,0,
2012-12-06, 03:41:05,VALID,916.013,VALID,0,VALID,97.1986,VALID,0,VALID,19.2377,VALID,129,VALID,0,
2012-12-06, 03:42:05,VALID,916.01,VALID,0,VALID,97.2138,VALID,0,VALID,19.2168,VALID,129,VALID,0,
2012-12-06, 03:43:05,VALID,915.998,VALID,0,VALID,97.1833,VALID,0,VALID,19.2377,VALID,130,VALID,0,
2012-12-06, 03:44:05,VALID,916.007,VALID,0,VALID,97.2062,VALID,0,VALID,19.1973,VALID,135,VALID,0,
2012-12-06, 03:45:05,VALID,916.019,VALID,0,VALID,97.1833,VALID,0,VALID,19.2182,VALID,127,VALID,0,
2012-12-06, 03:46:05,VALID,916.02,VALID,0,VALID,97.2062,VALID,0,VALID,19.2168,VALID,127,VALID,0,
2012-12-06, 03:47:05,VALID,916.023,VALID,0,VALID,97.2138,VALID,0,VALID,19.1973,VALID,127,VALID,0,
2012-12-06, 03:48:05,VALID,916.032,VALID,0,VALID,97.2138,VALID,0,VALID,19.2182,VALID,127,VALID,0,
2012-12-06, 03:49:05,VALID,916.028,VALID,0,VALID,97.2062,VALID,0,VALID,19.1973,VALID,127,VALID,0,
2012-12-06, 03:50:05,VALID,916.029,VALID,0,VALID,97.2062,VALID,0,VALID,19.2182,VALID,127,VALID,0,
2012-12-06, 03:51:05,VALID,916.027,VALID,0,VALID,97.2138,VALID,0,VALID,19.2182,VALID,127,VALID,0,
2012-12-06, 03:52:05,VALID,916.014,VALID,0,VALID,97.1986,VALID,0,VALID,19.1583,VALID,127,VALID,0,
2012-12-06, 03:53:05,VALID,916.001,VALID,0,VALID,97.1833,VALID,0,VALID,19.1778,VALID,127,VALID,0,
2012-12-06, 03:54:05,VALID,916.011,VALID,0,VALID,97.1757,VALID,0,VALID,19.1778,VALID,127,VALID,0,
2012-12-06, 03:55:04,VALID,915.996,VALID,0,VALID,97.1986,VALID,0,VALID,19.1583,VALID,127,VALID,0,
2012-12-06, 03:56:04,VALID,916.009,VALID,0,VALID,97.1757,VALID,0,VALID,19.1402,VALID,127,VALID,0,
2012-12-06, 03:57:04,VALID,915.997,VALID,0,VALID,97.1604,VALID,0,VALID,19.1193,VALID,127,VALID,0,